Vertical_Velocity
1 0 3 -0 -2 -2 -0 0 -2 -1 1 -1 -0 -1 3 2 -3 -3 1 -2 -1 -2 -1 -1 -2 1 -3 -2 -1 0 1 1 2 0 1 1 1 0 -1 -1 -0 0 1 -1 -0 -1 -1 -0 -0
-0 2 2 0 -0 -0 -1 1 -1 -1 -2 -4 -0 -3 2 -0 3 1 1 -1 -1 -0 0 -1 -2 2 1 1 -1 -1 -2 -0 1 -1 1 0 1 -0 1 1 -0 0 -0 -1 -2 -1 0 -0 -1
1 0 3 2 0 -0 -2 -0 1 -1 -1 2 1 -1 1 -4 -1 0 -0 0 -1 -2 -1 0 1 -2 2 4 0 -0 -1 -1 0 -0 -0 -1 -0 0 0 -1 1 1 1 1 -1 -2 -2 -1 -0
-2 2 4 1 0 -0 -1 1 2 2 0 -0 -1 -2 -1 -0 1 0 -0 0 -1 -1 -1 1 2 0 0 2 -0 -1 -1 0 -0 1 1 0 -0 1 1 1 1 1 -0 1 2 0 0 -1 -1
0 1 2 2 -3 -2 -2 -2 -1 -0 1 -0 -1 -1 -0 -0 0 0 0 -1 -0 -1 -1 -2 2 2 -0 1 2 1 2 0 1 -0 0 1 -1 -0 -0 -0 1 2 2 1 1 0 1 0 -0
-0 0 -1 -2 -2 -1 0 -1 -1 -1 -1 -0 -1 0 0 0 -0 0 -0 -2 -0 0 1 -2 -1 2 3 2 3 0 0 -1 -0 1 0 1 0 -0 -1 1 -0 -0 1 1 1 0 0 1 0
-1 1 -0 -0 0 -3 -2 -1 -1 1 -0 -1 -0 -0 0 -1 -0 -2 -1 -1 -0 0 -0 -0 1 1 4 -0 -0 0 2 1 0 -0 -1 0 -2 -1 1 -0 1 2 1 0 1 1 0 0 -0
1 4 1 -0 -5 -3 -2 -2 -1 0 0 -2 0 -2 -2 -1 1 2 -0 -1 -1 -0 1 1 -2 1 5 7 0 -1 0 -0 3 1 -1 0 0 -0 -1 -0 -0 -1 2 1 1 -0 -0 0 -0
-0 1 1 -1 -3 -2 -1 -1 -2 -0 -0 -2 -0 1 1 1 1 1 0 -2 -2 -1 -1 0 -0 -1 -2 -2 -1 -0 0 -0 -1 0 1 -1 0 -1 -1 -1 -1 -0 0 -1 -0 0 1 -0 0
2 2 -0 2 -2 2 2 0 -1 -1 1 -0 -0 -0 1 0 0 1 1 -1 -2 -3 -3 -2 -1 0 0 1 0 0 -0 -1 -1 -1 -1 0 -0 -1 -1 -1 -0 1 1 -0 -1 -0 -0 0 1
1 1 0 -1 1 2 1 -1 -2 -1 0 2 -0 -2 -1 -0 -1 -0 1 -1 0 -3 -1 -2 -1 -2 -1 -1 -1 -1 -0 -0 1 -0 0 -1 -2 -2 -1 1 0 -1 -0 1 -0 -1 -0 0 -1
-1 0 0 1 1 0 -0 -1 -3 -2 0 -1 0 -1 -0 -0 -1 -1 -1 -0 -2 -0 -2 -2 -3 -3 -2 -1 -1 -0 0 1 1 2 5 -2 -2 0 -1 -2 1 -1 -1 -1 -1 1 0 -1 -1
0 0 1 -1 -1 -1 0 -2 -3 2 -4 -0 1 -0 0 -0 -2 -4 -4 -2 -2 -2 -2 -2 -1 -2 -1 -0 -1 -1 -1 -1 0 -0 1 1 1 0 1 0 0 -1 -0 1 -0 0 -0 1 0
2 -1 -2 -2 -1 -1 -1 -2 -2 -1 -3 -3 -0 -0 0 -2 -2 -1 -2 0 0 1 3 1 2 1 -2 -1 -0 1 -2 -0 -1 1 2 1 2 0 1 -1 -1 -2 2 0 1 0 1 1 -1
1 -1 1 -2 -0 -2 -1 -4 2 -3 1 -1 -0 -1 -3 -2 -1 -1 2 0 1 -1 -0 -1 -1 0 0 -0 -1 -2 2 -1 -0 -1 0 1 -1 0 2 7 -1 0 2 4 3 2 -1 1 -0
1 2 1 -1 -1 -2 0 -1 -1 -0 -1 -1 -2 -1 -0 -1 -1 -2 -2 -0 -1 1 -1 -1 -4 -2 -3 -3 -1 1 2 -0 3 2 1 0 2 2 3 1 -3 3 1 6 6 6 5 4 -0
1 -2 -2 1 -1 -1 -1 -3 -3 -3 -2 -1 -3 -1 -1 -2 -2 -2 -1 -1 -0 -2 -1 1 -0 2 0 1 -2 -2 -1 -0 2 -0 2 3 -0 2 -0 0 5 7 3 4 7 6 7 1 -0
-1 -0 -1 -2 -3 -2 -1 -3 -5 1 -6 -3 -2 -2 -2 -3 -2 -1 -3 -5 -5 -4 -1 -2 -1 -1 -2 -1 -0 -0 -5 -2 -0 2 -0 4 -0 0 -2 -2 1 2 3 5 2 4 3 3 1
-2 1 -1 -1 -2 -4 0 -9 0 5 -3 -2 -4 -4 -3 1 1 -1 0 -0 -2 -3 -3 -3 -4 -2 -6 -5 -5 -3 -4 -1 0 1 6 2 5 4 1 2 4 6 2 3 5 5 3 5 4
-2 -0 -1 -0 -1 -3 2 -10 -5 -5 -1 -1 -2 1 2 0 -0 -1 -4 -6 -4 -4 -5 -5 -6 -2 -0 -4 -2 -4 -1 3 -1 1 1 3 0 3 -1 -1 1 0 2 6 4 4 1 8 5
-1 0 -0 -1 -1 -1 -6 -9 -8 -4 -2 -1 -0 -1 -0 -1 -1 -0 0 -2 -2 -3 -1 -2 -3 -2 -2 -2 -2 -1 -2 -1 3 8 6 6 4 6 1 2 -2 3 -2 4 6 4 4 1 5
-1 -1 -2 -3 -2 -2 0 -11 -16 -4 1 -1 -1 -2 -3 -3 -1 -3 -3 -1 -2 -2 0 -1 -2 -1 -0 -2 1 -2 0 -1 6 4 5 4 4 2 3 1 -1 -1 0 1 3 1 2 6 7
-2 -2 -1 -1 -1 -0 -2 1 -9 -0 -2 0 -1 -1 -1 -2 -3 -2 -3 -3 -3 -2 -1 1 1 1 -1 -2 -1 -1 -1 -3 -2 -0 -3 -0 5 0 1 3 2 -0 0 -2 5 5 4 2 4
-1 1 -0 -1 -1 -1 0 1 -10 -0 -1 -3 -4 -3 -3 -2 -2 -2 -2 -3 -0 -1 -2 -2 -5 -3 -2 -3 -5 -4 -6 -5 -3 -1 -3 0 2 -1 0 1 1 -5 -2 -0 -0 13 6 9 8
-1 -2 -2 -6 -3 -6 -0 1 -14 -2 -3 -4 -3 -2 -1 -1 -1 -0 1 1 -1 -2 -1 -1 -1 -1 -3 -3 -4 -1 -2 -2 -2 0 -0 3 4 5 -0 -3 0 2 -2 -3 -1 -0 5 6 2
0 -1 -1 -4 -2 -4 1 -6 -3 -1 -1 -1 -1 -2 -3 -1 -3 -2 -3 -0 -1 -3 -3 -4 -2 -2 -4 -3 -2 -2 -2 -1 -4 -2 -1 -0 1 -1 3 0 0 2 4 -1 -4 -1 2 3 2
-1 -2 -1 -2 -1 1 -1 -4 -7 -2 -2 -1 -2 -2 -4 -3 -2 -3 -1 -1 -2 -2 -3 -2 -2 -2 -1 -4 -2 -2 -1 -3 -1 0 -3 -0 2 1 1 1 2 1 3 0 -2 1 6 5 0
-1 -0 -2 -1 -2 -2 -4 -5 -12 -1 -1 -1 -1 -2 -2 -3 -2 -1 -3 -2 -3 -4 -2 -2 -4 -4 -2 -2 -0 -2 -2 -1 -4 -4 -2 -1 -1 -0 -0 -0 -1 0 1 0 2 1 1 2 1
0 -2 -1 -0 -1 -1 -0 -10 -2 -2 -1 -1 -1 -1 -2 -2 -4 -4 -2 -2 -1 -1 -1 -0 -3 -4 -2 -1 0 -1 -4 -3 -4 -3 -2 -0 -3 -0 -0 -1 4 4 3 0 -4 -2 1 0 1
-0 0 1 -1 -1 0 2 -33 -1 -1 -3 -3 -1 -3 -3 -1 -0 -1 -1 -2 -3 -3 -1 -1 -4 -4 -2 -1 0 -1 -1 -3 -3 -3 -3 -2 -2 -1 -1 -1 -1 -2 -6 -4 2 4 4 0 -2
Height
3129 3133 3137 3141 3149 3145 3146 3148 3149 3152 3154 3155 3157 3159 3161 3162 3163 3167 3163 3164 3165 3166 3168 3169 3170 3170 3171 3171 3171 3172 3172 3172 3171 3171 3171 3170 3170 3169 3169 3170 3170 3170 3169 3168 3167 3165 3164 3163 3162
3129 3133 3136 3139 3142 3142 3145 3146 3148 3151 3153 3155 3157 3159 3160 3161 3162 3163 3163 3164 3165 3166 3168 3169 3169 3169 3171 3171 3171 3172 3172 3172 3172 3171 3170 3170 3170 3170 3170 3170 3170 3170 3170 3169 3168 3167 3165 3164 3163
3128 3132 3137 3138 3139 3140 3143 3145 3148 3150 3152 3154 3157 3158 3159 3160 3161 3161 3162 3164 3165 3166 3167 3168 3168 3169 3169 3170 3170 3171 3172 3172 3172 3172 3171 3170 3170 3170 3169 3170 3170 3171 3170 3169 3168 3168 3167 3166 3165
3127 3132 3136 3135 3136 3140 3142 3145 3147 3149 3152 3153 3155 3157 3158 3158 3159 3160 3162 3162 3163 3165 3166 3166 3167 3168 3168 3169 3170 3170 3171 3172 3172 3171 3171 3171 3170 3170 3169 3170 3170 3170 3170 3170 3169 3168 3167 3166 3166
3124 3129 3132 3133 3135 3138 3141 3143 3146 3148 3150 3152 3154 3154 3156 3156 3157 3159 3160 3161 3162 3163 3164 3165 3164 3165 3167 3167 3168 3169 3169 3170 3171 3171 3171 3170 3170 3170 3170 3169 3169 3169 3169 3169 3168 3168 3167 3167 3166
3123 3127 3130 3130 3134 3138 3140 3143 3145 3147 3149 3152 3153 3153 3154 3155 3156 3157 3158 3159 3159 3160 3161 3162 3163 3164 3165 3165 3166 3167 3168 3168 3169 3169 3169 3169 3169 3169 3169 3169 3169 3168 3168 3167 3167 3166 3166 3166 3166
3121 3125 3127 3130 3133 3137 3139 3142 3144 3146 3148 3150 3151 3152 3153 3154 3155 3156 3156 3157 3157 3158 3158 3160 3161 3161 3162 3163 3164 3165 3165 3166 3166 3167 3167 3168 3167 3167 3167 3167 3167 3167 3167 3167 3167 3166 3165 3164 3164
3122 3125 3126 3129 3132 3136 3139 3141 3143 3146 3147 3149 3150 3151 3152 3152 3153 3154 3155 3155 3155 3155 3155 3156 3157 3158 3159 3160 3161 3162 3163 3164 3164 3164 3165 3165 3165 3165 3165 3165 3165 3165 3165 3165 3165 3165 3164 3163 3163
3121 3125 3125 3128 3132 3135 3138 3140 3142 3144 3145 3146 3148 3149 3150 3151 3152 3152 3153 3153 3153 3152 3153 3153 3154 3155 3156 3157 3158 3158 3159 3160 3160 3161 3161 3162 3162 3162 3162 3162 3162 3162 3162 3162 3162 3162 3162 3162 3161
3120 3123 3125 3129 3132 3134 3137 3140 3141 3143 3143 3144 3146 3147 3148 3149 3149 3150 3150 3150 3150 3150 3150 3150 3151 3151 3152 3153 3153 3154 3155 3155 3156 3157 3157 3158 3158 3159 3159 3159 3159 3159 3159 3159 3159 3159 3159 3159 3159
3120 3124 3126 3129 3132 3134 3136 3138 3140 3141 3142 3143 3144 3145 3145 3146 3146 3146 3147 3147 3147 3147 3147 3146 3146 3146 3147 3147 3148 3149 3149 3150 3150 3151 3151 3152 3153 3154 3154 3155 3155 3155 3155 3155 3156 3156 3156 3155 3155
3121 3124 3127 3129 3131 3133 3135 3137 3139 3140 3140 3141 3142 3143 3142 3142 3142 3142 3142 3143 3143 3143 3142 3143 3142 3143 3142 3142 3142 3143 3143 3143 3144 3144 3145 3145 3146 3147 3148 3149 3149 3150 3150 3151 3151 3151 3151 3151 3151
3121 3124 3126 3129 3130 3132 3134 3135 3137 3138 3138 3139 3139 3140 3139 3138 3137 3138 3138 3137 3136 3137 3138 3138 3139 3139 3138 3137 3137 3137 3137 3137 3138 3138 3139 3139 3140 3141 3142 3142 3143 3144 3144 3145 3145 3145 3145 3146 3146
3119 3122 3125 3127 3129 3131 3132 3134 3135 3136 3136 3136 3136 3136 3136 3135 3134 3135 3135 3135 3134 3135 3134 3134 3134 3133 3133 3132 3131 3129 3128 3129 3128 3129 3131 3131 3133 3134 3135 3136 3136 3137 3138 3138 3138 3139 3139 3140 3139
3117 3122 3124 3126 3128 3129 3131 3132 3132 3133 3133 3133 3133 3132 3132 3132 3132 3131 3131 3130 3130 3130 3129 3128 3127 3126 3125 3124 3123 3122 3122 3121 3120 3121 3122 3123 3124 3126 3127 3128 3129 3131 3131 3131 3131 3131 3132 3133 3134
3118 3122 3124 3126 3126 3127 3130 3129 3128 3129 3130 3129 3128 3128 3129 3129 3128 3128 3127 3126 3124 3124 3123 3122 3119 3118 3116 3115 3114 3113 3113 3112 3112 3112 3112 3112 3113 3116 3117 3118 3120 3123 3123 3124 3125 3125 3126 3127 3127
3118 3120 3122 3124 3124 3125 3126 3126 3126 3126 3126 3125 3125 3125 3124 3123 3122 3121 3120 3119 3118 3116 3115 3114 3111 3110 3108 3106 3104 3104 3104 3104 3104 3103 3103 3104 3104 3104 3106 3109 3111 3114 3115 3116 3117 3118 3119 3120 3121
3118 3119 3120 3121 3123 3122 3122 3122 3123 3123 3119 3120 3119 3119 3118 3116 3114 3111 3109 3108 3107 3105 3103 3102 3102 3100 3098 3096 3094 3094 3093 3093 3093 3093 3092 3093 3094 3095 3096 3097 3101 3104 3105 3107 3109 3111 3113 3114 3115
3118 3119 3119 3120 3120 3120 3119 3117 3120 3119 3116 3116 3114 3113 3111 3110 3108 3106 3103 3100 3097 3096 3094 3093 3091 3091 3088 3086 3084 3083 3081 3081 3080 3080 3080 3080 3080 3082 3084 3086 3091 3094 3095 3097 3100 3102 3104 3105 3108
3118 3119 3119 3119 3119 3117 3115 3112 3114 3111 3110 3109 3108 3107 3105 3104 3102 3100 3097 3095 3091 3088 3086 3083 3080 3077 3076 3074 3072 3069 3068 3068 3068 3068 3069 3070 3071 3072 3074 3075 3078 3083 3085 3087 3090 3092 3094 3097 3099
3118 3118 3117 3118 3117 3115 3112 3106 3106 3106 3103 3103 3102 3102 3100 3099 3098 3096 3093 3089 3085 3082 3078 3074 3070 3068 3065 3063 3060 3058 3056 3055 3055 3055 3056 3057 3057 3058 3060 3063 3066 3070 3074 3078 3081 3083 3086 3088 3091
3117 3117 3117 3116 3116 3115 3113 3105 3103 3100 3098 3098 3097 3096 3096 3094 3093 3089 3085 3083 3078 3075 3072 3067 3063 3061 3057 3054 3050 3047 3045 3043 3042 3042 3043 3045 3046 3047 3050 3052 3056 3059 3062 3066 3070 3074 3077 3079 3082
3116 3116 3116 3114 3113 3111 3109 3108 3097 3095 3095 3094 3094 3093 3091 3090 3088 3085 3080 3076 3072 3068 3064 3060 3057 3054 3051 3047 3043 3040 3037 3034 3032 3031 3032 3034 3036 3037 3040 3042 3044 3048 3050 3055 3059 3064 3068 3071 3074
3115 3115 3113 3112 3111 3110 3106 3107 3093 3092 3092 3092 3092 3089 3088 3087 3085 3082 3078 3072 3067 3064 3060 3056 3054 3049 3046 3043 3038 3035 3031 3028 3026 3025 3025 3026 3027 3030 3031 3034 3037 3039 3041 3045 3050 3055 3058 3061 3064
3113 3114 3113 3115 3114 3109 3105 3104 3089 3089 3089 3089 3088 3087 3087 3085 3083 3079 3075 3072 3068 3062 3058 3054 3050 3046 3043 3037 3033 3029 3025 3023 3022 3021 3021 3021 3023 3023 3025 3027 3028 3031 3035 3038 3041 3045 3048 3051 3053
3112 3113 3113 3119 3117 3108 3103 3094 3086 3086 3087 3086 3086 3086 3085 3083 3081 3078 3074 3070 3065 3060 3055 3051 3046 3041 3037 3032 3028 3024 3021 3020 3019 3019 3018 3018 3018 3019 3020 3021 3022 3025 3027 3030 3032 3036 3040 3044 3046
3112 3113 3114 3113 3112 3110 3096 3088 3084 3083 3083 3083 3084 3083 3083 3081 3078 3075 3072 3068 3062 3057 3053 3049 3044 3037 3033 3028 3024 3021 3018 3018 3017 3016 3015 3014 3014 3014 3014 3015 3016 3019 3021 3023 3025 3029 3032 3034 3038
3111 3113 3113 3112 3114 3111 3092 3086 3079 3080 3080 3081 3081 3080 3079 3077 3074 3071 3067 3063 3058 3055 3051 3047 3042 3035 3030 3026 3021 3019 3016 3014 3014 3013 3012 3011 3011 3010 3010 3011 3012 3013 3015 3017 3019 3023 3025 3028 3031
3109 3109 3110 3111 3110 3109 3103 3080 3077 3077 3078 3078 3077 3076 3075 3073 3070 3068 3064 3060 3056 3052 3049 3045 3041 3035 3028 3023 3018 3016 3015 3012 3010 3008 3007 3006 3006 3006 3007 3006 3006 3007 3010 3012 3014 3017 3019 3021 3023
3106 3106 3106 3107 3106 3104 3103 3078 3072 3075 3075 3075 3075 3074 3072 3069 3066 3062 3059 3057 3054 3051 3047 3043 3039 3034 3029 3023 3017 3014 3011 3009 3007 3005 3003 3002 3002 3002 3003 3004 3004 3005 3006 3007 3009 3011 3013 3015 3017